This is the latest recevied weather packets stored in our database for station/object OK1FET-4. If no packets are shown the sender has not sent any weather packets the latest 10 day(s).
| Time | Temp. | Humidity | Pressure | Rain* | Wind** | Luminosity | Snow |
|---|---|---|---|---|---|---|---|
| 1777376377 | 20.56° C | 30% | 1021.3 hPa | - | - | - | - |
| 1777376076 | 20.56° C | 30% | 1021.3 hPa | - | - | - | - |
| 1777375774 | 20.56° C | 30% | 1021.4 hPa | - | - | - | - |
| 1777375473 | 20.56° C | 30% | 1021.3 hPa | - | - | - | - |
| 1777375172 | 20.56° C | 30% | 1021.3 hPa | - | - | - | - |
| 1777374871 | 20.56° C | 31% | 1021.3 hPa | - | - | - | - |
| 1777374570 | 20° C | 31% | 1021.4 hPa | - | - | - | - |
| 1777374269 | 20° C | 31% | 1021.3 hPa | - | - | - | - |
| 1777373967 | 20° C | 30% | 1021.3 hPa | - | - | - | - |
| 1777373666 | 20.56° C | 31% | 1021.3 hPa | - | - | - | - |
| 1777373365 | 20.56° C | 31% | 1021.5 hPa | - | - | - | - |
| 1777373064 | 21.11° C | 31% | 1021.4 hPa | - | - | - | - |
| 1777372763 | 21.11° C | 31% | 1021.5 hPa | - | - | - | - |
| 1777372461 | 21.11° C | 32% | 1021.4 hPa | - | - | - | - |
| 1777372160 | 20.56° C | 32% | 1021.6 hPa | - | - | - | - |
| 1777371859 | 21.11° C | 32% | 1021.5 hPa | - | - | - | - |
| 1777371558 | 21.67° C | 33% | 1021.6 hPa | - | - | - | - |
| 1777371256 | 21.67° C | 33% | 1021.6 hPa | - | - | - | - |
| 1777370955 | 21.67° C | 34% | 1021.7 hPa | - | - | - | - |
| 1777370654 | 21.11° C | 35% | 1021.8 hPa | - | - | - | - |
| 1777370353 | 21.11° C | 35% | 1021.7 hPa | - | - | - | - |
| 1777370051 | 20.56° C | 36% | 1021.7 hPa | - | - | - | - |
| 1777369750 | 20° C | 37% | 1021.7 hPa | - | - | - | - |
| 1777369449 | 19.44° C | 36% | 1021.8 hPa | - | - | - | - |
| 1777369148 | 20° C | 38% | 1021.8 hPa | - | - | - | - |
* Rain since midnight (hover to see other rain measurements)
** Current wind speed in m/s (hover to see current wind gust speed)